FW4597 Lexington MA US current weather conditions

sailwx.info

Wind from 300 at 4 knots gusting 8

Air temperature 2.8° C
Dewpoint -3.8° C

Last reported at 2019-Dec-05 22:08 UTC.
Time now 2019-Dec-05 22:56 UTC

Location: N 42°26' W 071°14'.
View on Google Maps.

See reports from other nearby stations

  
Tides and Currents Weather Stations Pressure Air Temp Water Temp Dewpoint Dewpoint Depression Visibility Wind Speed Wind Dir Waves Ship Positions
date/time (UTC)wind fromknots sea level pressurealtimeterstation pressurevisibilityair tempwater tempwave heightnotes
2019-Dec-05 22:08 300 4 gusting 8 2.8
2019-Dec-05 22:03 274 3 gusting 7 2.8
2019-Dec-05 21:58 251 3 gusting 7 2.8
2019-Dec-05 21:53 328 3 gusting 6 2.8
2019-Dec-05 21:48 273 3 gusting 6 2.8
2019-Dec-05 21:43 224 3 gusting 8 2.8
2019-Dec-05 21:38 288 3 gusting 8 2.8
2019-Dec-05 21:33 345 3 gusting 6 3.3
2019-Dec-05 21:28 319 3 gusting 6 3.3
2019-Dec-05 21:23 333 3 gusting 7 3.3
2019-Dec-05 21:18 278 3 gusting 7 3.3
2019-Dec-05 21:13 307 3 gusting 7 3.3
2019-Dec-05 21:08 282 3 gusting 11 3.3
2019-Dec-05 21:03 311 4 gusting 11 3.3
2019-Dec-05 20:58 315 4 gusting 10 3.3
2019-Dec-05 20:53 322 4 gusting 10 3.9
2019-Dec-05 20:48 286 4 gusting 8 3.9
2019-Dec-05 20:43 268 4 gusting 9 3.9
2019-Dec-05 20:38 262 4 gusting 9 3.9
2019-Dec-05 20:33 345 3 gusting 6 3.9
2019-Dec-05 20:28 265 4 gusting 7 3.9
2019-Dec-05 20:23 318 3 gusting 7 3.9
2019-Dec-05 20:18 317 3 gusting 8 3.9
2019-Dec-05 20:13 296 3 gusting 8 3.9
2019-Dec-05 20:08 317 3 gusting 7 3.9
2019-Dec-05 20:03 309 4 gusting 12 3.9
2019-Dec-05 19:58 332 3 gusting 12 3.9
2019-Dec-05 19:53 288 3 gusting 9 3.9
2019-Dec-05 19:47 257 4 gusting 12 4.4
2019-Dec-05 19:42 336 4 gusting 12 4.4
2019-Dec-05 19:37 296 2 gusting 6 4.4
2019-Dec-05 19:32 323 2 gusting 5 4.4
2019-Dec-05 19:27 288 2 gusting 5 4.4
2019-Dec-05 19:22 328 2 gusting 6 4.4
2019-Dec-05 19:17 341 3 gusting 6 4.4
2019-Dec-05 19:12 276 3 gusting 6 4.4
2019-Dec-05 19:07 303 3 gusting 6 4.4
2019-Dec-05 19:02 269 3 gusting 7 4.4
2019-Dec-05 18:57 292 3 gusting 7 4.4
2019-Dec-05 18:52 283 3 gusting 7 4.4
2019-Dec-05 18:47 286 3 gusting 7 4.4
2019-Dec-05 18:42 254 2 gusting 6 5.0
2019-Dec-05 18:37 309 3 gusting 9 5.0
2019-Dec-05 18:32 306 4 gusting 9 5.0
2019-Dec-05 18:27 276 4 gusting 9 5.0
2019-Dec-05 18:22 332 3 gusting 9 5.0
2019-Dec-05 18:17 278 2 gusting 6 5.6
2019-Dec-05 18:12 314 3 gusting 9 5.6
2019-Dec-05 18:07 307 3 gusting 9 5.6
2019-Dec-05 18:02 313 3 gusting 7 5.6
2019-Dec-05 17:57 244 2 gusting 7 5.6
2019-Dec-05 17:52 301 3 gusting 7 6.1
2019-Dec-05 17:47 306 3 gusting 7 6.1
2019-Dec-05 17:42 276 3 gusting 7 6.1
2019-Dec-05 17:37 287 3 gusting 7 6.1
2019-Dec-05 17:32 306 3 gusting 7 5.6
2019-Dec-05 17:27 318 3 gusting 6 5.6
2019-Dec-05 17:22 273 4 gusting 7 5.0
2019-Dec-05 17:17 306 4 gusting 7 5.0
2019-Dec-05 17:12 334 4 gusting 7 5.0
2019-Dec-05 17:07 282 4 gusting 7 5.0
2019-Dec-05 17:02 298 4 gusting 11 5.6
2019-Dec-05 16:57 313 4 gusting 11 5.6
2019-Dec-05 16:52 303 4 gusting 8 5.6
2019-Dec-05 16:47 306 4 gusting 9 5.6
2019-Dec-05 16:42 289 3 gusting 9 5.0
2019-Dec-05 16:37 330 3 gusting 6 5.0
2019-Dec-05 16:32 350 2 gusting 5 5.0
2019-Dec-05 16:27 041 4 gusting 8 5.0
2019-Dec-05 16:22 319 4 gusting 8 4.4
2019-Dec-05 16:17 321 3 gusting 6 4.4
2019-Dec-05 16:12 280 3 gusting 9 4.4
2019-Dec-05 16:07 355 4 gusting 11 3.9
2019-Dec-05 16:02 307 4 gusting 11 3.9
2019-Dec-05 15:57 327 4 gusting 8 3.3
2019-Dec-05 15:52 334 3 gusting 7 3.3
2019-Dec-05 15:47 308 3 gusting 7 3.3
2019-Dec-05 15:42 337 4 gusting 8 3.3
2019-Dec-05 15:37 321 3 gusting 8 3.3
2019-Dec-05 15:32 322 2 gusting 6 2.8
2019-Dec-05 15:27 292 3 gusting 6 2.8
2019-Dec-05 15:22 327 3 gusting 7 2.8
2019-Dec-05 15:17 338 4 gusting 7 2.8
2019-Dec-05 15:12 287 3 gusting 7 2.2
2019-Dec-05 15:07 308 3 gusting 7 2.2
2019-Dec-05 15:02 328 3 gusting 7 2.2
2019-Dec-05 14:57 341 2 gusting 6 1.7
2019-Dec-05 14:52 267 2 gusting 6 1.7
2019-Dec-05 14:47 316 2 gusting 6 1.7
2019-Dec-05 14:42 326 2 gusting 7 1.1
2019-Dec-05 14:37 283 2 gusting 7 1.1
2019-Dec-05 14:32 301 2 gusting 6 0.6
2019-Dec-05 14:27 299 2 gusting 6 0.6
2019-Dec-05 14:22 306 2 gusting 5 0.6
2019-Dec-05 14:17 317 1 gusting 5 -0.0
2019-Dec-05 14:12 290 1 gusting 3 -0.0
2019-Dec-05 14:07 302 1 gusting 5 -0.0
2019-Dec-05 14:02 317 1 gusting 5 -0.6
2019-Dec-05 13:56 242 1 gusting 4 -0.6
2019-Dec-05 13:51 248 1 gusting 6 -0.6
2019-Dec-05 13:46 273 1 gusting 6 -0.6
2019-Dec-05 13:42 242 1 gusting 5 -0.6
2019-Dec-05 13:36 258 1 gusting 5 -1.1
2019-Dec-05 13:31 265 1 gusting 3 -1.1
2019-Dec-05 13:26 262 1 gusting 3 -1.1
2019-Dec-05 13:21 230 0 gusting 2 -1.1
2019-Dec-05 13:16 260 1 gusting 3 -1.1
2019-Dec-05 13:11 258 1 gusting 4 -1.1
2019-Dec-05 13:06 242 1 gusting 5 -1.1
2019-Dec-05 13:01 247 1 gusting 5 -1.1
2019-Dec-05 12:56 240 1 gusting 3 -1.1
2019-Dec-05 12:51 267 1 gusting 3 -1.1
2019-Dec-05 12:46 251 1 gusting 3 -1.7
2019-Dec-05 12:41 264 1 gusting 3 -1.7
2019-Dec-05 12:36 235 1 gusting 6 -1.7
2019-Dec-05 12:31 209 1 gusting 6 -1.7
2019-Dec-05 12:26 244 1 gusting 6 -1.7
2019-Dec-05 12:21 213 1 gusting 6 -1.7
2019-Dec-05 12:16 251 1 gusting 3 -1.7
2019-Dec-05 12:11 232 1 gusting 6 -1.7
2019-Dec-05 12:06 259 1 gusting 6 -1.7
2019-Dec-05 12:01 261 1 gusting 4 -1.7
2019-Dec-05 11:56 223 1 gusting 4 -1.7
2019-Dec-05 11:51 238 1 gusting 2 -1.7
2019-Dec-05 11:46 234 1 gusting 2 -1.7
2019-Dec-05 11:41 226 1 gusting 2 -1.7
2019-Dec-05 11:36 223 1 gusting 3 -1.7
2019-Dec-05 11:31 261 0 gusting 3 -1.7
2019-Dec-05 11:26 241 1 gusting 2 -1.7
2019-Dec-05 11:21 241 1 gusting 3 -1.7
2019-Dec-05 11:16 256 1 gusting 3 -1.7
2019-Dec-05 11:11 256 1 gusting 3 -1.7
2019-Dec-05 11:06 248 0 gusting 3 -1.1
2019-Dec-05 11:01 257 0 gusting 2 -1.1
2019-Dec-05 10:56 257 0 gusting 2 -1.1
2019-Dec-05 10:51 244 0 gusting 2 -1.1
2019-Dec-05 10:46 244 1 gusting 2 -1.1
2019-Dec-05 10:41 240 1 gusting 3 -1.1
2019-Dec-05 10:36 239 1 gusting 3 -1.1
2019-Dec-05 10:31 240 1 gusting 2 -1.1
2019-Dec-05 10:26 238 0 gusting 2 -1.1
2019-Dec-05 10:21 238 0 gusting 3 -1.1
2019-Dec-05 10:16 236 0 gusting 3 -1.1
2019-Dec-05 10:11 251 0 gusting 2 -1.1
2019-Dec-05 10:06 251 0 gusting 1 -1.1
2019-Dec-05 10:01 251 1 gusting 3 -1.1
2019-Dec-05 09:56 251 1 gusting 3 -1.1
2019-Dec-05 09:51 253 1 gusting 3 -1.1
2019-Dec-05 09:46 261 1 gusting 3 -1.1
2019-Dec-05 09:41 247 1 gusting 3 -1.1
2019-Dec-05 09:36 244 1 gusting 2 -1.1
2019-Dec-05 09:31 247 1 gusting 2 -1.1
2019-Dec-05 09:26 247 1 gusting 3 -1.1
2019-Dec-05 09:21 243 0 gusting 3 -1.1
2019-Dec-05 09:16 224 0 gusting 2 -1.1
2019-Dec-05 09:11 261 0 gusting 2 -1.1
2019-Dec-05 09:06 251 1 gusting 2 -1.1
2019-Dec-05 09:01 252 1 gusting 2 -1.1
2019-Dec-05 08:56 252 1 gusting 2 -1.1
2019-Dec-05 08:51 251 1 gusting 3 -1.1
2019-Dec-05 08:46 251 1 gusting 3 -1.1
2019-Dec-05 08:40 239 1 gusting 2 -1.1
2019-Dec-05 08:35 240 1 gusting 2 -1.1
2019-Dec-05 08:30 241 1 gusting 3 -1.1
2019-Dec-05 08:25 259 1 gusting 3 -1.1
2019-Dec-05 08:20 226 1 gusting 3 -1.1
2019-Dec-05 08:15 259 1 gusting 3 -1.1
2019-Dec-05 08:10 222 1 gusting 3 -1.1
2019-Dec-05 08:05 274 1 gusting 2 -1.1
2019-Dec-05 08:00 250 1 gusting 2 -1.1
2019-Dec-05 07:55 253 1 gusting 2 -1.1
2019-Dec-05 07:50 253 1 gusting 2 -1.1
2019-Dec-05 07:45 253 0 gusting 2 -1.1
2019-Dec-05 07:40 253 0 gusting 2 -0.6
2019-Dec-05 07:35 253 0 gusting 2 -0.6
2019-Dec-05 07:30 253 0 gusting 2 -0.6
2019-Dec-05 07:25 253 0 gusting 1 -0.6
2019-Dec-05 07:20 252 0 gusting 1 -0.6
2019-Dec-05 07:15 252 0 gusting 1 -0.6
2019-Dec-05 07:10 252 0 gusting 1 -0.6
2019-Dec-05 07:05 252 0 gusting 2 -0.6
2019-Dec-05 07:00 252 0 gusting 2 -0.6
2019-Dec-05 06:55 255 0 gusting 1 -0.6
2019-Dec-05 06:50 255 0 gusting 2 -0.6
2019-Dec-05 06:45 255 1 gusting 2 -0.6
2019-Dec-05 06:40 272 0 gusting 2 -0.6
2019-Dec-05 06:35 272 0 gusting 2 -0.6
2019-Dec-05 06:30 274 0 gusting 1 -0.6
2019-Dec-05 06:25 274 0 gusting 1 -0.6
2019-Dec-05 06:20 274 0 gusting 1 -0.6
2019-Dec-05 06:15 274 0 gusting 1 -0.6
2019-Dec-05 06:10 274 0 gusting 1 -0.6
2019-Dec-05 06:05 274 0 gusting 1 -0.6
2019-Dec-05 06:00 274 0 gusting 1 -0.6
2019-Dec-05 05:55 274 0 gusting 1 -0.6
2019-Dec-05 05:50 274 1 gusting 2 -0.6
2019-Dec-05 05:45 274 1 gusting 2 -0.6
2019-Dec-05 05:40 274 0 gusting 2 -0.6
2019-Dec-05 05:35 274 0 gusting 1 -0.0
2019-Dec-05 05:30 274 0 gusting 1 -0.0
2019-Dec-05 05:25 274 0 gusting 1 -0.0
2019-Dec-05 05:20 274 0 gusting 1 -0.0
2019-Dec-05 05:15 274 0 gusting 1 -0.0
2019-Dec-05 05:05 274 1 gusting 3 -0.0
2019-Dec-05 05:00 274 1 gusting 2 -0.0
2019-Dec-05 04:55 274 0 gusting 2 -0.0
2019-Dec-05 04:50 269 0 gusting 2 -0.0
2019-Dec-05 04:45 270 1 gusting 2 -0.0
2019-Dec-05 04:40 271 1 gusting 2 -0.0
2019-Dec-05 04:35 268 1 gusting 2 -0.0
2019-Dec-05 04:30 238 1 gusting 3 -0.0
2019-Dec-05 04:25 240 1 gusting 3 -0.0
2019-Dec-05 04:20 243 1 gusting 3 -0.0
2019-Dec-05 04:15 235 1 gusting 3 -0.0
2019-Dec-05 04:10 242 1 gusting 2 -0.0
2019-Dec-05 04:05 241 1 gusting 2 -0.0
2019-Dec-05 04:00 242 1 gusting 2 -0.0
2019-Dec-05 03:54 242 1 gusting 2 -0.0
2019-Dec-05 03:49 242 1 gusting 2 -0.0
2019-Dec-05 03:44 242 0 gusting 2 -0.0
2019-Dec-05 03:40 247 1 gusting 4 0.6
2019-Dec-05 03:34 247 1 gusting 4 0.6
2019-Dec-05 03:29 259 0 gusting 3 0.6
2019-Dec-05 03:24 267 0 gusting 3 0.6
2019-Dec-05 03:19 236 0 gusting 1 0.6
2019-Dec-05 03:14 236 0 gusting 3 0.6
2019-Dec-05 03:09 236 1 gusting 3 0.6
2019-Dec-05 03:04 228 1 gusting 2 0.6
2019-Dec-05 02:59 241 1 gusting 2 0.6
2019-Dec-05 02:54 255 0 gusting 2 0.6
2019-Dec-05 02:49 255 0 gusting 2 0.6
2019-Dec-05 02:44 253 0 gusting 1 0.6
2019-Dec-05 02:39 253 0 gusting 1 0.6
2019-Dec-05 02:34 253 0 gusting 1 0.6
2019-Dec-05 02:29 253 0 gusting 1 0.6
2019-Dec-05 02:24 261 0 gusting 1 0.6
2019-Dec-05 02:19 262 0 gusting 2 0.6
2019-Dec-05 02:14 262 1 gusting 2 0.6
2019-Dec-05 02:09 250 1 gusting 2 0.6
2019-Dec-05 02:04 253 1 gusting 2 0.6
2019-Dec-05 01:59 238 1 gusting 2 0.6
2019-Dec-05 01:54 237 0 gusting 2 0.6
2019-Dec-05 01:49 219 0 gusting 1 0.6
2019-Dec-05 01:44 219 0 gusting 1 0.6
2019-Dec-05 01:39 219 0 gusting 1 0.6
2019-Dec-05 01:34 219 0 gusting 2 0.6
2019-Dec-05 01:29 219 1 gusting 2 0.6
2019-Dec-05 01:24 219 1 gusting 3 0.6
2019-Dec-05 01:19 222 1 gusting 3 0.6
2019-Dec-05 01:14 242 0 gusting 3 0.6
2019-Dec-05 01:09 220 0 gusting 2 0.6
2019-Dec-05 01:04 261 0 gusting 2 0.6
2019-Dec-05 00:59 261 0 gusting 2 0.6
2019-Dec-05 00:54 227 0 gusting 2 1.1
2019-Dec-05 00:49 228 0 gusting 2 1.1
2019-Dec-05 00:44 217 0 gusting 2 1.1
2019-Dec-05 00:39 217 0 gusting 3 1.1
2019-Dec-05 00:34 217 1 gusting 3 1.1
2019-Dec-05 00:29 249 1 gusting 3 1.1
2019-Dec-05 00:24 246 1 gusting 3 1.1
2019-Dec-05 00:19 261 1 gusting 2 1.1
2019-Dec-05 00:14 251 1 gusting 2 1.1
2019-Dec-05 00:09 236 1 gusting 2 1.1
2019-Dec-05 00:04 236 1 gusting 3 1.1
2019-Dec-04 23:59 236 1 gusting 3 1.1
2019-Dec-04 23:54 236 0 gusting 2 1.1
2019-Dec-04 23:49 235 0 gusting 2 1.1
2019-Dec-04 23:44 236 1 gusting 2 1.1
2019-Dec-04 23:39 236 1 gusting 2 1.1
2019-Dec-04 23:34 236 0 gusting 2 1.1
2019-Dec-04 23:29 236 0 gusting 1 1.1
2019-Dec-04 23:24 236 0 gusting 2 1.1
2019-Dec-04 23:19 236 0 gusting 2 1.1
2019-Dec-04 23:14 236 0 gusting 2 1.1
2019-Dec-04 23:09 236 0 gusting 1 1.1
2019-Dec-04 23:04 236 0 gusting 1 1.1
2019-Dec-04 22:59 236 0 gusting 1 1.1
2019-Dec-04 22:54 236 0 gusting 1 1.1
2019-Dec-04 22:49 236 0 gusting 1 1.1
2019-Dec-04 22:44 237 0 gusting 2 1.1
2019-Dec-04 22:38 237 0 gusting 2 1.1
2019-Dec-04 22:33 238 0 gusting 2 1.1
2019-Dec-04 22:29 238 0 gusting 1 1.1
2019-Dec-04 22:24 238 1 gusting 1 1.1
2019-Dec-04 22:19 238 0 gusting 1 1.1
2019-Dec-04 22:13 238 0 gusting 1 1.1
2019-Dec-04 22:09 237 0 gusting 1 1.1
2019-Dec-04 22:04 237 0 gusting 1 1.7
2019-Dec-04 21:58 237 0 gusting 2 1.7
2019-Dec-04 21:53 237 0 gusting 2 1.7
2019-Dec-04 21:48 238 0 gusting 1 1.7
2019-Dec-04 21:43 238 0 gusting 1 1.7
2019-Dec-04 21:38 238 0 gusting 1 1.7
2019-Dec-04 21:33 238 0 gusting 1 1.7
2019-Dec-04 21:28 238 0 gusting 1 1.7
2019-Dec-04 21:23 238 0 gusting 1 1.7
2019-Dec-04 21:18 238 0 gusting 1 1.7
2019-Dec-04 21:13 238 0 gusting 1 1.7
2019-Dec-04 21:08 238 0 gusting 2 1.7
2019-Dec-04 21:03 238 0 gusting 2 1.7
2019-Dec-04 20:58 230 0 gusting 2 1.7
2019-Dec-04 20:53 246 0 gusting 1 1.7
2019-Dec-04 20:48 246 0 gusting 1 2.2
2019-Dec-04 20:43 246 0 gusting 2 2.2
2019-Dec-04 20:38 246 1 gusting 2 2.2
2019-Dec-04 20:33 253 0 gusting 2 2.2
2019-Dec-04 20:28 253 0 gusting 3 2.2
2019-Dec-04 20:23 253 0 gusting 3 2.2
2019-Dec-04 20:18 262 0 gusting 2 2.2
2019-Dec-04 20:13 301 0 gusting 2 2.2
2019-Dec-04 20:08 241 0 gusting 1 2.2
2019-Dec-04 20:03 241 0 gusting 2 2.2
2019-Dec-04 19:58 241 0 gusting 2 2.8
2019-Dec-04 19:53 241 0 gusting 2 2.8
2019-Dec-04 19:48 242 1 gusting 4 2.8
2019-Dec-04 19:43 209 0 gusting 4 2.8
2019-Dec-04 19:38 230 0 gusting 2 2.8
2019-Dec-04 19:33 229 0 gusting 4 2.8
2019-Dec-04 19:28 228 1 gusting 4 2.8
2019-Dec-04 19:23 241 1 gusting 4 2.8
2019-Dec-04 19:18 199 1 gusting 4 2.8
2019-Dec-04 19:13 230 1 gusting 3 2.8
2019-Dec-04 19:08 251 1 gusting 6 2.8
2019-Dec-04 19:03 212 1 gusting 6 2.8
2019-Dec-04 18:58 236 0 gusting 3 2.8
2019-Dec-04 18:53 257 1 gusting 3 2.8
2019-Dec-04 18:48 257 1 gusting 3 2.8
2019-Dec-04 18:43 242 1 gusting 3 2.8
2019-Dec-04 18:38 242 0 gusting 2 2.8
2019-Dec-04 18:33 244 1 gusting 3 2.8
2019-Dec-04 18:28 225 1 gusting 3 2.8
2019-Dec-04 18:23 243 1 gusting 3 2.8
2019-Dec-04 18:18 255 1 gusting 3 2.2
2019-Dec-04 18:13 197 1 gusting 6 2.2
2019-Dec-04 18:08 224 1 gusting 6 2.2
2019-Dec-04 18:02 258 1 gusting 3 2.2
2019-Dec-04 17:57 271 1 gusting 6 2.2
2019-Dec-04 17:52 274 1 gusting 6 2.2
2019-Dec-04 17:47 224 1 gusting 4 1.7
2019-Dec-04 17:42 260 1 gusting 4 1.7
2019-Dec-04 17:37 253 1 gusting 3 1.7
2019-Dec-04 17:32 188 1 gusting 4 1.7
2019-Dec-04 17:27 219 1 gusting 4 1.7
2019-Dec-04 17:22 237 2 gusting 5 1.7
2019-Dec-04 17:17 224 2 gusting 5 1.7
2019-Dec-04 17:12 244 2 gusting 6 1.7
2019-Dec-04 17:07 200 1 gusting 6 1.7
2019-Dec-04 17:02 271 1 gusting 5 1.7
2019-Dec-04 16:57 229 1 gusting 4 1.7
2019-Dec-04 16:52 241 1 gusting 5 1.7
2019-Dec-04 16:47 260 2 gusting 5 1.7
2019-Dec-04 16:42 250 2 gusting 5 1.7
2019-Dec-04 16:37 253 1 gusting 6 1.7
2019-Dec-04 16:32 222 1 gusting 6 1.7
2019-Dec-04 16:27 294 2 gusting 6 1.7
2019-Dec-04 16:22 211 2 gusting 6 1.7
2019-Dec-04 16:17 215 1 gusting 4 1.7
2019-Dec-04 16:12 205 1 gusting 5 1.7
2019-Dec-04 16:07 254 1 gusting 6 1.7
2019-Dec-04 16:02 236 1 gusting 6 1.7
2019-Dec-04 15:57 253 1 gusting 5 1.7
2019-Dec-04 15:52 236 1 gusting 6 1.1
2019-Dec-04 15:47 191 1 gusting 6 1.1
2019-Dec-04 15:42 302 1 gusting 5 1.1
2019-Dec-04 15:37 286 1 gusting 5 1.1
2019-Dec-04 15:32 240 1 gusting 5 1.1
2019-Dec-04 15:27 215 1 gusting 5 0.6
2019-Dec-04 15:22 244 1 gusting 5 0.6
2019-Dec-04 15:17 249 1 gusting 5 -0.0
2019-Dec-04 15:12 271 1 gusting 5 -0.0
2019-Dec-04 15:07 269 1 gusting 4 -0.0
2019-Dec-04 15:02 281 1 gusting 4 -0.0
2019-Dec-04 14:57 232 1 gusting 4 -0.6
2019-Dec-04 14:52 238 1 gusting 3 -0.6
2019-Dec-04 14:47 305 1 gusting 3 -0.6
2019-Dec-04 14:42 305 1 gusting 4 -0.6
2019-Dec-04 14:37 237 1 gusting 4 -0.6
2019-Dec-04 14:32 234 1 gusting 4 -1.1
2019-Dec-04 14:27 240 1 gusting 5 -1.1
2019-Dec-04 14:22 233 1 gusting 5 -1.7
2019-Dec-04 14:17 253 1 gusting 3 -1.7
2019-Dec-04 14:12 253 1 gusting 3 -1.7
2019-Dec-04 14:07 180 1 gusting 3 -1.7
2019-Dec-04 14:02 259 0 gusting 3 -2.2
2019-Dec-04 13:57 257 1 gusting 3 -2.2
2019-Dec-04 13:52 241 1 gusting 3 -2.2
2019-Dec-04 13:47 238 1 gusting 3 -2.2
2019-Dec-04 13:42 265 1 gusting 2 -2.8
2019-Dec-04 13:37 261 0 gusting 2 -2.8
2019-Dec-04 13:32 188 0 gusting 3 -2.8
2019-Dec-04 13:27 262 1 gusting 3 -2.8
2019-Dec-04 13:22 234 0 gusting 1 -2.8
2019-Dec-04 13:17 234 0 gusting 1 -3.3
2019-Dec-04 13:11 234 0 gusting 3 -3.3
2019-Dec-04 13:06 234 1 gusting 4 -3.3
2019-Dec-04 13:02 240 1 gusting 4 -3.3
2019-Dec-04 12:56 252 1 gusting 3 -3.3
2019-Dec-04 12:52 271 1 gusting 2 -3.3
2019-Dec-04 12:46 245 1 gusting 3 -3.3
2019-Dec-04 12:41 242 1 gusting 3 -3.9
2019-Dec-04 12:36 239 1 gusting 3 -3.9
2019-Dec-04 12:31 251 1 gusting 3 -3.9
2019-Dec-04 12:26 229 1 gusting 6 -3.9
2019-Dec-04 12:21 240 2 gusting 6 -3.9
2019-Dec-04 12:16 251 1 gusting 3 -3.9
2019-Dec-04 12:11 247 1 gusting 3 -3.9
2019-Dec-04 12:06 248 1 gusting 5 -3.9
2019-Dec-04 12:01 245 1 gusting 5 -3.9
2019-Dec-04 11:56 285 1 gusting 3 -3.9
2019-Dec-04 11:51 255 1 gusting 3 -3.9
2019-Dec-04 11:46 258 1 gusting 3 -3.9
2019-Dec-04 11:41 256 1 gusting 3 -3.9
2019-Dec-04 11:36 245 1 gusting 3 -3.9
2019-Dec-04 11:31 239 1 gusting 3 -3.9
2019-Dec-04 11:26 255 1 gusting 3 -3.9
2019-Dec-04 11:21 245 1 gusting 2 -3.9
2019-Dec-04 11:16 246 0 gusting 2 -3.9
2019-Dec-04 11:11 244 1 gusting 3 -3.9
2019-Dec-04 11:06 244 1 gusting 3 -3.9
2019-Dec-04 11:01 254 1 gusting 2 -3.9
2019-Dec-04 10:56 253 1 gusting 2 -3.9
2019-Dec-04 10:51 253 1 gusting 2 -3.9
2019-Dec-04 10:46 253 1 gusting 2 -3.9
2019-Dec-04 10:41 254 1 gusting 2 -3.9
2019-Dec-04 10:36 257 0 gusting 2 -3.9
2019-Dec-04 10:31 257 0 gusting 1 -3.9
2019-Dec-04 10:26 257 0 gusting 1 -3.9
2019-Dec-04 10:21 257 -3.9
2019-Dec-04 10:16 257 0 gusting 1 -3.9
2019-Dec-04 10:11 257 0 gusting 2 -3.9
2019-Dec-04 10:06 257 0 gusting 2 -3.9
2019-Dec-04 10:01 256 0 gusting 1 -3.9
2019-Dec-04 09:56 256 0 gusting 1 -3.9
2019-Dec-04 09:51 256 0 gusting 1 -3.9
2019-Dec-04 09:46 257 0 gusting 2 -3.9
2019-Dec-04 09:41 257 0 gusting 2 -3.9
2019-Dec-04 09:36 259 0 gusting 2 -3.9
2019-Dec-04 09:31 286 0 gusting 2 -3.9
2019-Dec-04 09:26 301 0 gusting 2 -3.9
2019-Dec-04 09:21 252 1 gusting 2 -3.9
2019-Dec-04 09:16 249 0 gusting 2 -4.4
2019-Dec-04 09:11 279 1 gusting 2 -4.4
2019-Dec-04 09:06 262 1 gusting 2 -4.4
2019-Dec-04 09:01 257 1 gusting 2 -4.4
2019-Dec-04 08:56 244 0 gusting 2 -4.4
2019-Dec-04 08:51 244 1 gusting 2 -4.4
2019-Dec-04 08:46 274 1 gusting 2 -4.4
2019-Dec-04 08:41 276 1 gusting 3 -4.4
2019-Dec-04 08:36 267 1 gusting 3 -4.4
2019-Dec-04 08:31 290 1 gusting 2 -4.4
2019-Dec-04 08:26 290 1 gusting 2 -4.4
2019-Dec-04 08:21 290 0 gusting 1 -4.4
2019-Dec-04 08:16 290 0 gusting 1 -4.4
2019-Dec-04 08:11 290 0 gusting 2 -4.4
2019-Dec-04 08:06 293 0 gusting 2 -4.4
2019-Dec-04 08:01 280 1 gusting 2 -4.4
2019-Dec-04 07:56 280 1 gusting 2 -4.4
2019-Dec-04 07:51 284 1 gusting 2 -4.4
2019-Dec-04 07:46 273 1 gusting 2 -4.4
2019-Dec-04 07:41 272 1 gusting 2 -4.4
2019-Dec-04 07:36 312 1 gusting 2 -3.9
2019-Dec-04 07:31 257 1 gusting 2 -3.9
2019-Dec-04 07:25 237 1 gusting 2 -3.9
2019-Dec-04 07:20 296 1 gusting 2 -3.9
2019-Dec-04 07:15 305 1 gusting 3 -3.9
2019-Dec-04 07:10 282 1 gusting 3 -3.9
2019-Dec-04 07:05 301 1 gusting 2 -3.9
2019-Dec-04 07:00 300 0 gusting 2 -3.9
2019-Dec-04 06:55 300 0 gusting 2 -3.9
2019-Dec-04 06:50 296 1 gusting 3 -3.9
2019-Dec-04 06:45 264 1 gusting 3 -3.9
2019-Dec-04 06:40 306 1 gusting 2 -3.9
2019-Dec-04 06:35 307 1 gusting 3 -3.9
2019-Dec-04 06:30 266 1 gusting 3 -3.9
2019-Dec-04 06:25 276 1 gusting 3 -3.9
2019-Dec-04 06:20 238 1 gusting 4 -3.9
2019-Dec-04 06:15 263 1 gusting 4 -3.9
2019-Dec-04 06:10 285 1 gusting 3 -3.9
2019-Dec-04 06:05 292 1 gusting 3 -3.9
2019-Dec-04 06:00 317 1 gusting 3 -3.9
2019-Dec-04 05:55 325 1 gusting 2 -3.9
2019-Dec-04 05:50 286 1 gusting 3 -3.9
2019-Dec-04 05:45 304 1 gusting 3 -3.9
2019-Dec-04 05:40 272 1 gusting 2 -3.9
2019-Dec-04 05:35 271 1 gusting 2 -3.9
2019-Dec-04 05:30 266 1 gusting 2 -3.9
2019-Dec-04 05:25 265 0 gusting 2 -3.9
2019-Dec-04 05:20 294 1 gusting 2 -3.9
2019-Dec-04 05:15 294 1 gusting 2 -3.9
2019-Dec-04 05:10 296 0 gusting 2 -3.9
2019-Dec-04 05:05 221 0 gusting 1 -3.3
2019-Dec-04 05:00 221 0 gusting 1 -3.3
2019-Dec-04 04:55 221 1 gusting 2 -3.3
2019-Dec-04 04:50 221 1 gusting 2 -3.3
2019-Dec-04 04:45 324 1 gusting 2 -3.3
2019-Dec-04 04:35 325 0 gusting 1 -3.3
2019-Dec-04 04:30 325 0 gusting 1 -3.3
2019-Dec-04 04:25 325 0 gusting 2 -3.3
2019-Dec-04 04:20 326 0 gusting 2 -3.3
2019-Dec-04 04:15 326 0 gusting 2 -3.3
2019-Dec-04 04:10 235 0 gusting 1 -3.3
2019-Dec-04 04:05 234 0 gusting 2 -3.3
2019-Dec-04 04:00 234 0 gusting 2 -3.3
2019-Dec-04 03:55 230 0 gusting 2 -3.3
2019-Dec-04 03:50 230 0 gusting 2 -2.8
2019-Dec-04 03:45 281 0 gusting 2 -2.8
2019-Dec-04 03:40 282 1 gusting 2 -2.8
2019-Dec-04 03:34 259 1 gusting 2 -2.8
2019-Dec-04 03:29 313 0 gusting 2 -2.8
2019-Dec-04 03:25 328 1 gusting 3 -2.8
2019-Dec-04 03:19 333 1 gusting 3 -2.8
2019-Dec-04 03:14 302 2 gusting 3 -2.8
2019-Dec-04 03:09 257 2 gusting 3 -2.8
2019-Dec-04 03:04 330 1 gusting 3 -2.8
2019-Dec-04 02:59 277 1 gusting 3 -2.8
2019-Dec-04 02:54 275 1 gusting 3 -2.8
2019-Dec-04 02:49 325 1 gusting 2 -2.8
2019-Dec-04 02:44 325 1 gusting 4 -2.8
2019-Dec-04 02:39 328 1 gusting 4 -2.8
2019-Dec-04 02:34 317 1 gusting 3 -2.8
2019-Dec-04 02:29 311 1 gusting 2 -2.8
2019-Dec-04 02:25 329 1 gusting 3 -2.8
2019-Dec-04 02:19 330 1 gusting 3 -2.8
2019-Dec-04 02:14 312 1 gusting 3 -2.2
2019-Dec-04 02:09 315 0 gusting 3 -2.2
2019-Dec-04 02:04 319 0 gusting 3 -2.2
2019-Dec-04 01:59 319 1 gusting 3 -2.2
2019-Dec-04 01:54 319 1 gusting 3 -2.2
2019-Dec-04 01:49 319 1 gusting 3 -2.2
2019-Dec-04 01:44 317 1 gusting 3 -2.2
2019-Dec-04 01:39 320 1 gusting 3 -2.2
2019-Dec-04 01:34 317 1 gusting 3 -2.2
2019-Dec-04 01:29 317 1 gusting 3 -2.2
2019-Dec-04 01:24 316 2 gusting 4 -2.2
2019-Dec-04 01:19 313 1 gusting 4 -2.2
2019-Dec-04 01:14 299 1 gusting 3 -2.2
2019-Dec-04 01:09 319 1 gusting 3 -2.2
2019-Dec-04 01:04 320 2 gusting 3 -2.2
2019-Dec-04 00:59 317 1 gusting 3 -2.2
2019-Dec-04 00:54 327 1 gusting 3 -2.2
2019-Dec-04 00:49 323 1 gusting 4 -1.7
2019-Dec-04 00:44 332 1 gusting 4 -1.7
2019-Dec-04 00:39 315 1 gusting 3 -1.7
2019-Dec-04 00:34 326 1 gusting 4 -1.7
2019-Dec-04 00:29 330 2 gusting 4 -1.7
2019-Dec-04 00:24 315 2 gusting 4 -1.7
2019-Dec-04 00:19 307 2 gusting 4 -1.7
2019-Dec-04 00:14 328 2 gusting 5 -1.7
2019-Dec-04 00:09 313 2 gusting 5 -1.7
2019-Dec-04 00:04 305 2 gusting 6 -1.7
2019-Dec-03 23:59 328 2 gusting 6 -1.7
2019-Dec-03 23:54 324 2 gusting 6 -1.7
2019-Dec-03 23:49 332 2 gusting 4 -1.7
2019-Dec-03 23:44 333 2 gusting 4 -1.7
2019-Dec-03 23:39 323 2 gusting 5 -1.7
2019-Dec-03 23:34 330 2 gusting 6 -1.7
2019-Dec-03 23:29 315 3 gusting 9 -1.7
2019-Dec-03 23:24 330 3 gusting 9 -1.7
2019-Dec-03 23:19 350 3 gusting 7 -1.7
2019-Dec-03 23:14 355 2 gusting 7 -1.7
2019-Dec-03 23:09 355 2 gusting 6 -1.7
2019-Dec-03 23:04 326 2 gusting 6 -1.7
2019-Dec-03 22:59 315 1 gusting 3 -1.7
2019-Dec-03 22:54 313 0 gusting 2 -1.1
2019-Dec-03 22:49 298 0 gusting 2 -1.1
2019-Dec-03 22:44 298 0 gusting 1 -1.1
2019-Dec-03 22:39 296 0 gusting 2 -1.1
2019-Dec-03 22:34 296 1 gusting 2 -1.1
2019-Dec-03 22:29 334 1 gusting 2 -1.1
2019-Dec-03 22:24 305 1 gusting 3 -1.1
2019-Dec-03 22:19 323 2 gusting 3 -1.1
2019-Dec-03 22:14 317 2 gusting 4 -1.1
2019-Dec-03 22:09 314 2 gusting 5 -1.1
2019-Dec-03 22:04 016 2 gusting 5 -1.1